Flag for Denmark Weather past 2 weeks in Hirtshals, Denmark

Now
59 °F

Cool.


Feels Like: 56 °F
Forecast: 46 / 54 °F
Wind: 12 mph from West

Location: Aalborg

Current Time: May 24, 2015 at 3:39:25 PM

Latest Report: May 24, 2015 at 3:00 PM


Visibility: 19 mi

Pressure: 30.00 "Hg

Humidity: 62%

Dew point: 46 °F

Location of HirtshalsLocation

Historic Weather in Hirtshals — Graph

°F

Hirtshals temperature yesterday

Maximum temperature yesterday: 56 °F (at 1:00 PM)
Minimum temperature yesterday: 46 °F (at 3:00 AM)
Average temperature yesterday: 51 °F

Past Weeks' High & Low Weather Summary

 TemperatureHumidityPressure
High68 °F (May 11, 4:00 PM)100% (May 14, 9:00 AM)30.26 "Hg (May 14, 9:00 AM)
Low41 °F (May 15, 4:00 AM)45% (May 15, 1:00 PM)29.38 "Hg (May 19, 3:00 AM)
Average51 °F79%29.91 "Hg
* Reported May 9 2:00 PM — May 24 2:00 PM, Hirtshals, Weather by CustomWeather, © 2015

Note: Actual official high and low records may vary slightly from our data, if they occured in-between our weather recording intervals... More about our weather records

Advertising

Hirtshals weather history for previous 24 hours

 ConditionsComfort  
Time TempWeatherWind HumidityBarometerVisibility
2:00 PM
Sun, May 24
59 °FPartly sunny.15 mph60%30.02 "Hg16 mi
1:00 PM57 °FCool.15 mph63%30.03 "Hg17 mi
12:00 PM55 °FCool.15 mph69%30.04 "Hg22 mi
11:00 AM54 °FPartly sunny.16 mph69%30.05 "Hg16 mi
10:00 AM51 °FCool.15 mph73%30.06 "Hg22 mi
9:00 AM49 °FCool.15 mph74%30.06 "Hg22 mi
8:00 AM49 °FOvercast.14 mph77%30.05 "Hg12 mi
7:00 AM48 °FCool.15 mph80%30.04 "Hg16 mi
6:00 AM47 °FCool.15 mph82%30.05 "Hg17 mi
5:00 AM47 °FPartly sunny.12 mph85%30.05 "Hg12 mi
4:00 AM46 °FCool.12 mph86%30.05 "Hg12 mi
3:00 AM46 °FCool.10 mph87%30.06 "Hg12 mi
2:00 AM45 °FPassing clouds.10 mph87%30.06 "Hg12 mi
1:00 AM45 °FCool.10 mph87%30.07 "Hg12 mi
12:00 AM46 °FCool.12 mph85%30.07 "Hg12 mi
10:00 PM
Sat, May 23
47 °FCool.12 mph80%30.07 "Hg12 mi
9:00 PM49 °FCool.15 mph74%30.06 "Hg14 mi
8:00 PM51 °FPassing clouds.15 mph69%30.06 "Hg12 mi
7:00 PM53 °FCool.18 mph65%30.06 "Hg17 mi
6:00 PM54 °FCool.16 mph64%30.07 "Hg15 mi
5:00 PM55 °FPassing clouds.18 mph64%30.07 "Hg12 mi
4:00 PM55 °FCool.16 mph62%30.08 "Hg17 mi
3:00 PM55 °FCool.18 mph64%30.08 "Hg17 mi
Weather by CustomWeather, © 2015

See weather overviewHow to use our weather pages